CW0566 Weather Reports


time (UTC)temp
F
wind
direction
speed
knots
gust
knots
rain 1hr
in
rain 24hr
in
rain mn
in
humidity
%
barometer
mb
20260505052017 61 315 1.7 7.0 0.00 0.00 0.00 74 1010.8
20260505051016 61 315 1.7 7.8 0.00 0.00 0.00 74 1010.9
20260505041016 60 315 0.9 4.3 0.00 0.00 0.00 73 1010.8
20260505040036 61 315 2.6 5.2 0.00 0.00 0.00 72 1010.8
20260505035018 61 315 0.9 2.6 0.00 0.00 0.00 72 1010.7
20260505034017 61 315 1.7 7.0 0.00 0.00 0.00 72 1010.8
20260505033017 60 315 1.7 5.2 0.00 0.00 0.00 72 1010.8
20260505032017 61 315 0.9 2.6 0.00 0.00 0.00 71 1010.7
20260505031017 61 315 0.9 3.5 0.00 0.00 0.00 71 1010.7
20260505030038 61 315 0.9 4.3 0.00 0.00 0.00 70 1010.9
20260505025017 61 315 0.9 3.5 0.00 0.00 0.00 69 1010.9
20260505024017 61 315 1.7 5.2 0.00 0.00 0.00 68 1011.0
20260505023017 61 315 0.9 4.3 0.00 0.00 0.00 67 1011.1
20260505022017 61 315 0.9 4.3 0.00 0.00 0.00 65 1011.1
20260505021017 61 315 0.9 3.5 0.00 0.00 0.00 63 1011.1
20260505020017 61 315 0.9 7.0 0.00 0.00 0.00 61 1011.0
20260505015017 61 315 0.9 3.5 0.00 0.00 0.00 60 1011.0
20260505014017 61 315 0.9 3.5 0.00 0.00 0.00 61 1010.9
20260505013037 62 315 0.9 3.5 0.00 0.00 0.00 60 1010.8
20260505012017 62 0.0 1.7 0.00 0.00 0.00 60 1010.8
20260505011037 63 0.0 0.9 0.00 0.00 0.00 60 1010.6
20260505010017 63 0.0 1.7 0.00 0.00 0.00 59 1010.5
20260505005017 64 203 0.9 1.7 0.00 0.00 0.00 58 1010.4
20260505004017 64 225 0.9 2.6 0.00 0.00 0.00 57 1010.2
20260505003017 65 248 0.9 5.2 0.00 0.00 0.00 56 1010.2
20260505002017 65 248 0.9 2.6 0.00 0.00 0.00 55 1010.1
20260505001016 66 0.0 2.6 0.00 0.00 0.00 54 1010.1
20260505000016 67 0.0 0.9 0.00 0.00 0.00 52 1010.1
20260504235018 68 0.0 1.7 0.00 0.00 0.00 50 1010.0
20260504234017 69 225 0.9 2.6 0.00 0.00 0.00 49 1009.9
20260504233037 70 0.0 2.6 0.00 0.00 0.00 47 1010.0
20260504232017 70 248 1.7 3.5 0.00 0.00 0.00 46 1010.1
20260504231016 71 180 0.9 3.5 0.00 0.00 0.00 45 1010.1
20260504230016 72 270 0.9 4.3 0.00 0.00 0.00 44 1010.1
20260504225037 73 225 0.9 5.2 0.00 0.00 0.00 44 1010.0
20260504224037 73 270 0.9 3.5 0.00 0.00 0.00 43 1010.0
20260504223016 73 270 2.6 4.3 0.00 0.00 0.00 42 1010.0
20260504222016 73 293 3.5 8.7 0.00 0.00 0.00 42 1010.0
20260504221018 73 248 2.6 4.3 0.00 0.00 0.00 42 1010.1
20260504220016 73 270 4.3 8.7 0.00 0.00 0.00 41 1010.1
20260504215037 73 248 2.6 9.6 0.00 0.00 0.00 41 1010.2
20260504214016 73 315 6.1 11.3 0.00 0.00 0.00 39 1010.2
20260504213016 73 315 6.1 13.0 0.00 0.00 0.00 40 1010.1
20260504212016 73 270 6.1 17.4 0.00 0.00 0.00 41 1010.3
20260504211016 73 315 5.2 11.3 0.00 0.00 0.00 41 1010.3
20260504210017 74 293 6.1 13.0 0.00 0.00 0.00 40 1010.3
20260504205016 74 270 7.0 13.0 0.00 0.00 0.00 39 1010.2
20260504204016 74 270 6.1 11.3 0.00 0.00 0.00 39 1010.2
20260504203017 74 315 5.2 15.6 0.00 0.00 0.00 40 1010.1
20260504202016 74 315 6.1 12.2 0.00 0.00 0.00 39 1010.2
20260504201038 74 315 7.8 15.6 0.00 0.00 0.00 39 1010.3
20260504200016 74 270 4.3 10.4 0.00 0.00 0.00 40 1010.5
20260504195018 74 270 5.2 13.0 0.00 0.00 0.00 40 1010.5
20260504194016 74 293 5.2 14.8 0.00 0.00 0.00 39 1010.9
20260504193016 73 293 5.2 12.2 0.00 0.00 0.00 41 1011.1
20260504192016 73 270 5.2 12.2 0.00 0.00 0.00 41 1011.1
20260504191037 73 315 5.2 11.3 0.00 0.00 0.00 40 1011.2
20260504190016 73 315 5.2 12.2 0.00 0.00 0.00 39 1011.2
20260504185017 73 270 5.2 12.2 0.00 0.00 0.00 39 1011.5
20260504184017 73 270 4.3 10.4 0.00 0.00 0.00 40 1011.4
20260504183016 73 270 3.5 10.4 0.00 0.00 0.00 41 1011.6
20260504182016 72 315 4.3 10.4 0.00 0.00 0.00 42 1011.8
20260504181017 72 315 4.3 10.4 0.00 0.00 0.00 39 1011.9
20260504180016 72 293 4.3 10.4 0.00 0.00 0.00 42 1011.9
20260504175017 72 315 4.3 11.3 0.00 0.00 0.00 39 1012.1
20260504174057 71 315 7.0 13.0 0.00 0.00 0.00 41 1012.3
20260504173016 71 293 4.3 12.2 0.00 0.00 0.00 43 1012.4
20260504172016 71 293 5.2 11.3 0.00 0.00 0.00 44 1012.6
20260504171016 71 293 3.5 8.7 0.00 0.00 0.00 44 1012.8
20260504151016 67 315 3.5 8.7 0.00 0.00 0.00 54 1013.8
20260504141015 64 315 5.2 12.2 0.00 0.00 0.00 58 1013.9
20260504081016 47 270 0.9 3.5 0.00 0.00 0.00 76 1015.1